Location: Newark
(33.6439°N, 114.9881°W)
Time: 00:21:44
(UTC+00:00)

Tiros 1 - Pass Details

Date: 30 July 2019
Orbit: 630 x 664 km, 48.4° (Epoch: 21 August)

Event Time Altitude Azimuth Distance (km) Brightness Sun altitude
Rises 14:24:29 0° 199° (SSW) 2,934 10.2 17.8°
Reaches altitude 10° 14:27:07 10° 186° (S) 2,034 9.6 18.4°
Maximum altitude 14:30:56 25° 131° (SE) 1,312 9.5 19.1°
Drops below altitude 10° 14:34:47 10° 77° (ENE) 2,060 12.1 19.9°
Sets 14:37:28 0° 64° (ENE) 2,980 11.9 20.5°
